Вернуться в каталог

STARLINK-36648

АктивенСвязьVLEO
NORAD 67825·PAYLOAD·🇺🇸 United States

Запущен Feb 16, 2026 с Vandenberg Space Force Base

Loading…

Ближайшие Пролёты (ближайшие 24 часа)

TLE

СвежийSource: CelesTrak SupGP

Эпоха: Sep 15, 2026, 04:12 UTC

1 67825C 26033E   26258.17548611 -.00034828  00000+0 -12614-2 0  2588
2 67825  42.9995 276.5633 0001308 266.5191 236.7630 15.27598825    12

Отслеживайте STARLINK-36648 в реальном времени с AllMySat

Download on the App Store